Regional Weather Roundup
Issued by NWS Grand Forks, ND

Home | Current Version | Previous Version | Graphics & Text | Print | Product List | Glossary On
Versions: 1 2 3 4 5 6 7 8 9 10 11 12 13 14 15 16 17 18 19 20 21 22 23 24 25 26 27 28 29 30 31 32 33 34 35 36 37 38 39 40 41 42 43 44 45 46 47 48 49 50
000
ASUS43 KFGF 260631
RWRFGF
PRAIRIE TO PINES  WEATHER ROUNDUP
NATIONAL WEATHER SERVICE EASTERN NORTH DAKOTA/GRAND FORKS ND
1200 AM CST MON JAN 26 2015

 **SATELLITE DATA USED TO AUGMENT SKY COVER AT AUTOMATED STATIONS**
 *****  WEATHER ACROSS EASTERN NORTH DAKOTA  *****

CITY           SKY/WX    TMP DP  RH WIND       PRES   REMARKS
GRAND FORKS    MOCLDY    28  25  86 S17       29.64F WCI  16
6HR MIN TEMP:  26; 6HR MAX TEMP:  30;

GRAND FRKS AFB MOCLDY    30  27  86 SW10      29.65R WCI  21
GRAND FRKS NWS   N/A     27 N/A N/A S16         N/A  WCI  14
DEVILS LAKE    MOCLDY    37  32  81 W20       29.62S
6HR MIN TEMP:  27; 6HR MAX TEMP:  37;

FARGO          FLURRIES  29  24  82 S21       29.77F WCI  16
WAHPETON ARPT  CLOUDY    28  23  80 S12       29.82F WCI  18
$$

 ***** WEATHER ACROSS CENTRAL AND WESTERN NORTH DAKOTA  *****

CITY           SKY/WX    TMP DP  RH WIND       PRES   REMARKS
BISMARCK       PTCLDY    34  30  85 SW5       29.77F
6HR MIN TEMP:  33; 6HR MAX TEMP:  37;

MINOT          PTCLDY    40  32  73 W18       29.72R
6HR MIN TEMP:  35; 6HR MAX TEMP:  40;

JAMESTOWN      MOCLDY    36  29  75 SW9       29.70F
6HR MIN TEMP:  29; 6HR MAX TEMP:  36;

MINOT AFB      PTCLDY    38  37  96 NW17      29.71R
GARRISON         N/A     39  34  82 W12G18    29.75R
WILLISTON      MOCLDY    40  33  76 SW9       29.84R
6HR MIN TEMP:  38; 6HR MAX TEMP:  43;

DICKINSON      PTCLDY    41  34  76 W16       29.82R
6HR MIN TEMP:  40; 6HR MAX TEMP:  44;

HETTINGER      CLEAR     40  33  76 W16       29.87R
6HR MIN TEMP:  37; 6HR MAX TEMP:  42;

$$

 *****  OTHER AIRPORT OBSERVATIONS IN OUR AREA  *****

CITY           SKY/WX    TMP DP  RH WIND       PRES   REMARKS
WALHALLA         N/A     36  36 100 W15G23    29.57F
GRAFTON AIRPOR NOT AVBL
VALLEY CITY AR NOT AVBL
CANDO          MOCLDY    36  32  87 W20G28    29.64R
CAVALIER APRT  FAIR      28  27  93 SW5       29.59F WCI  23
GWINNER        MOCLDY    32  32 100 SW10      29.79R WCI  24
SHEYENNE NWR     N/A     30  28  93 S7        29.95  WCI  23
ROLLA          FAIR      39  32  75 NW22G32   29.63R
 ***** THE ABOVE OBSERVATIONS ARE NON NWS ARE NOT QUALITY
       CONTROLLED AND MAY MIS-REPORT RAIN FOR SNOW...
$$

  *****  WEATHER ACROSS NORTHERN MINNESOTA  *****

CITY           SKY/WX    TMP DP  RH WIND       PRES   REMARKS
FLAG ISLAND    MIX PCPN  21  19  93 S14       29.62F WCI   8
WARROAD        CLOUDY    25  19  80 S8        29.63F WCI  16
ROSEAU         CLOUDY    27  21  80 S15       29.60F WCI  15
HALLOCK        MOCLDY    27  23  86 S15       29.61F WCI  15
THF RVR FALLS  CLOUDY    27  25  93 S13       29.66F WCI  16
6HR MIN TEMP:  19; 6HR MAX TEMP:  27;

BAUDETTE       FLURRIES  23  18  81 S13       29.67F WCI  11
6HR MIN TEMP:  19; 6HR MAX TEMP:  23; 6HR PCP: TRACE;

WASKISH        FLURRIES  25  21  86 S7        29.68F WCI  17
CROOKSTON      CLOUDY    27  25  93 SW16G24   29.69S WCI  14
STEPHEN NDAWN    N/A     27  23  86 SW15        N/A  WCI  15
GREENBUSH NDAW   N/A     25  23  93 S18         N/A  WCI  11
$$
  *****  WEATHER ACROSS CENTRAL AND WEST MINNESOTA  *****

CITY           SKY/WX    TMP DP  RH WIND       PRES   REMARKS
FOSSTON        CLOUDY    25  19  80 S20G28    29.68F WCI  11
BEMIDJI        CLOUDY    25  18  73 S8G17     29.72F WCI  16
PARK RAPIDS    CLOUDY    25  18  74 S13       29.77F WCI  14
6HR MIN TEMP:  24; 6HR MAX TEMP:  27;

ELBOW LAKE     CLOUDY    26  24  92 S10       29.85S WCI  17
6HR MIN TEMP:  22; 6HR MAX TEMP:  26;

WADENA         CLOUDY    25  19  80 S14       29.79F WCI  13
DETROIT LAKES  CLOUDY    27  23  86 S12       29.77F WCI  16
MOORHEAD       CLOUDY    28  27  93 S16G23    29.76F WCI  17
FERGUS FALLS   MIX PCPN  27  25  93 S14       29.84F WCI  15
MORRIS MN      CLOUDY    28  27  93 S6        29.87R FOG     WCI  22
STAPLES        CLOUDY    25  19  80 S14       29.81F WCI  13
$$
  *****  WEATHER ELSEWHERE ACROSS MINNESOTA  *****

CITY           SKY/WX    TMP DP  RH WIND       PRES   REMARKS
DULUTH         CLOUDY    19   9  65 S9        29.85F WCI   8
6HR MIN TEMP:  17; 6HR MAX TEMP:  20;

INTRNTL FALLS  LGT SNOW  23  15  71 VRB7      29.72F WCI  15
6HR MIN TEMP:  16; 6HR MAX TEMP:  23; 6HR PCP: TRACE;

ELY            LGT SNOW  18  12  79 S8        29.81F WCI   7
CLOQUET        CLOUDY    19  10  68 S6        29.84F WCI  11
WHEATON        MOCLDY    27  25  93 SE9       29.85F WCI  17
BRAINERD       CLOUDY    24  18  77 S10       29.86F WCI  14
6HR MIN TEMP:  21; 6HR MAX TEMP:  24;

HIBBING        CLOUDY    19  12  74 S8        29.81F WCI   9
6HR MIN TEMP:  19; 6HR MAX TEMP:  21;

ALEXANDRIA     CLOUDY    26  22  84 S10       29.86F WCI  16
6HR MIN TEMP:  24; 6HR MAX TEMP:  26;

SAINT CLOUD    CLOUDY    23  18  81 S10       29.89F WCI  12
6HR MIN TEMP:  22; 6HR MAX TEMP:  24;

MINNEAPOLIS    CLOUDY    22  16  78 S7        29.98F WCI  13
6HR MIN TEMP:  22; 6HR MAX TEMP:  24;

$$

  *****  WEATHER ACROSS SOUTH DAKOTA  *****

CITY           SKY/WX    TMP DP  RH WIND       PRES   REMARKS
SIOUX FALLS    MOCLDY    32  30  92 SW6       29.94F
6HR MIN TEMP:  31; 6HR MAX TEMP:  33;

BROOKINGS      NOT AVBL
WATERTOWN      CLOUDY    30  29  96 S13       29.82F WCI  20
6HR MIN TEMP:  30; 6HR MAX TEMP:  31;

HURON          PTCLDY    33  30  88 S12       29.88F WCI  24
6HR MIN TEMP:  31; 6HR MAX TEMP:  34;

SISSETON         N/A     33  31  92 SW12      29.82F WCI  24
ABERDEEN       PTCLDY    32  29  88 S12       29.83F WCI  23
6HR MIN TEMP:  31; 6HR MAX TEMP:  32;

MITCHELL       PTCLDY    34  32  92 S9        29.92F
PIERRE         CLOUDY    34  28  79 W8        29.87S
6HR MIN TEMP:  32; 6HR MAX TEMP:  38;

MOBRIDGE       MOCLDY    34  29  82 SE5       29.80F
RAPID CITY     PTCLDY    45  31  58 NW10      29.95S
6HR MIN TEMP:  32; 6HR MAX TEMP:  47;

$$

  *****  SOME WEATHER IN NEARBY STATES *****

CITY           SKY/WX    TMP DP  RH WIND       PRES   REMARKS
GLASGOW MT     CLEAR     38  32  79 NW3       29.92R
6HR MIN TEMP:  35; 6HR MAX TEMP:  45;

GREAT FALLS MT CLOUDY    53  28  38 SW22      30.08S
6HR MIN TEMP:  51; 6HR MAX TEMP:  54;

CHEYENNE WY    PTCLDY    46  24  42 NW15      30.21R
6HR MIN TEMP:  39; 6HR MAX TEMP:  46;

SCOTTSBLUFF NE MOCLDY    33  29  85 NW3       30.13R
6HR MIN TEMP:  32; 6HR MAX TEMP:  47;

OMAHA NE       CLEAR     29  27  92 S7        30.06S WCI  22
6HR MIN TEMP:  29; 6HR MAX TEMP:  38;

DES MOINES IA  CLOUDY    32  24  72 W3        30.06F
6HR MIN TEMP:  32; 6HR MAX TEMP:  34;

DAVENPORT IA   CLOUDY    16  10  77 N5        30.05F WCI   9
6HR MIN TEMP:  13; 6HR MAX TEMP:  23;

CHICAGO IL     MOCLDY    24  15  68 NE13      29.97F WCI  12
6HR MIN TEMP:  24; 6HR MAX TEMP:  26;

EAU CLAIRE WI  PTCLDY    16   9  74 S6        30.00F WCI   7
6HR MIN TEMP:  16; 6HR MAX TEMP:  22;

LA CROSSE WI   PTCLDY    21  14  74 S3        30.04S
6HR MIN TEMP:  20; 6HR MAX TEMP:  26;

$$

  *****  SOME NATIONAL WEATHER *****

CITY           SKY/WX    TMP DP  RH WIND       PRES   REMARKS
LA GUARDIA NY  CLOUDY    28   8  43 NE8       30.01R WCI  20
6HR MIN TEMP:  28; 6HR MAX TEMP:  35;

RALEIGH NC     MOCLDY    41  33  73 SE5       29.76F
6HR MIN TEMP:  41; 6HR MAX TEMP:  48;

ATLANTA GA     MOCLDY    45  41  86 W8        29.74F
6HR MIN TEMP:  42; 6HR MAX TEMP:  55; 6HR PCP:  0.03;

NEW ORLEANS LA PTCLDY    51  41  68 W10       30.00R
6HR MIN TEMP:  51; 6HR MAX TEMP:  59;

OKLAHOMA CITY  CLEAR     38  26  62 NW3       30.17S
6HR MIN TEMP:  37; 6HR MAX TEMP:  52;

ALBUQUERQUE NM PTCLDY    39  24  55 CALM      30.35R
6HR MIN TEMP:  37; 6HR MAX TEMP:  54;

SALT LAKE CITY CLEAR     35  30  82 E5        30.42R
6HR MIN TEMP:  34; 6HR MAX TEMP:  47;



USA.gov is the U.S. government's official web portal to all federal, state and local government web resources and services.